Jackpot

Texas Poker Multi Jackpot System

Kini Telah hadir Jackpot SUPER ROYAL FLUSH

Kini Telah hadir Jackpot 2000 (khusus table VIP keatas).

Ikutilah global jackpot yang tersedia di system kami, dengan system jackpot terbaru dan pertama di indonesia, anda dapat membeli jackpot dengan harga 100 rupiah saja dan menangkan hadiahnya hingga puluhan juta rupiah.

Jackpot bukanlah suatu keharusan untuk dibeli, namun kami memberikan suatu fitur tambahan untuk member tercinta dari www.oceqq.org.

Terdapat tiga pilihan harga jackpot yang bisa anda beli yaitu :100,500,1000 dan 2000(khusus table VIP Keatas) rupiah.

Hadiah dari Multi jackpot system www.oceqq.org

  1. full house x 10 harga jackpot yang anda beli.
      (contoh:anda membeli 1000 maka:1000 X10 = 10.000)
  2. four of kind x 250 harga jackpot yang anda beli
      (contoh:anda membeli 1000 maka:1000 X250 = 250.000)
  3. Straight flush x 1200
      (contoh:anda membeli 1000 maka:1000 X1200 = 1.200.000)
  4. Royal flush x 10000 harga jackpot yang anda beli
      (contoh:anda membeli 1000 maka:1000 X10000 = 10.000.000)
  5. SUPER ROYAL FLUSH x 30000 harga jackpot yang anda beli
      (contoh:anda membeli 1000 maka:1000 X30000 = 30.000.000)

Kondisi kartu

  1. full house adalah kondisi kartu dimana kartu anda dan kartu tengah dengan total 7 kartu bisa mendapatkan nilai 5 kartu dengan kombinasi 1 tris(three of kind) dan 1 pair, contoh 3 kartu 10 dan 2 kartu 5
  2. Four of kind adalah kondisi kartu dimana kartu anda dan kartu tengah dengan total 7 kartu bisa mendapatkan nilai 5 kartu dengan kombinasi 4 kartu yang sama jumlah dan 1 kartu apapun juga contoh anda mendapatkan 4 buah kartu angka 3 dan 1 kartu apapun.
  3. Staright flush adalah kondisi kartu dimana kartu anda dan kartu tengah dengan total 7 kartu bisa mendapatkan nilai 5 kartu dengan kombinasi seri / staright dengan kembang yang sama contoh : urutan kartu dari angka 5, 6, 7, 8 , 9 10 dengan kembang yg sama misalnya as hati
  4. Royal flush adalah kondisi kartu dimana kartu anda dan kartu tengah dengan total 7 kartu bisa mendapatkan nilai 5 kartu dengan kombinasi seri / staright dengan kembang yang sama tetapi kartu tersebut haruslah dimulai dari 10. contoh 10, Queen, Jack, King dan aces dengan kembang yang sama
  5. Super Royal flush adalah kondisi kartu dimana Kedua kartu anda digabung dengan 3 kartu pertama meja haruslah royal flush. contoh kartu anda 10,Queen kembang sama dan 3 kartu pertama meja adalah Jack, King dan aces dengan kembang yang sama

Demikian adalah penjelasan dari Multi Jackpot www.oceqq.org terima kasih dan selamat bermain salam hoki dari kami

Texas Poker Jackpot Winner

TOP SUPER ROYAL FLUSH
No.TanggalNamaPriceWin
123/05 06:58MEJEWSuper Royal flush15,000,000
223/05 04:35MIZA03Super Royal flush15,000,000
323/05 02:38CERPE12Super Royal flush30,000,000
423/05 01:43GREEND99Super Royal flush3,000,000
523/05 00:51AAMUELQQSuper Royal flush30,000,000
TOP ROYAL FLUSH
No.TanggalNamaPriceWin
123/05 11:38DORDOR_99Royal flush5,000,000
223/05 11:29SEVILLAFC1Royal flush2,000,000
323/05 11:08AYONG777Royal flush10,000,000
423/05 10:34NGOPI_NAPARoyal flush2,000,000
523/05 10:19ADUY90Royal flush1,000,000
TOP STRAIGHT FLUSH
No.TanggalNamaPriceWin
123/05 11:52ASSATUHStraight Flush120,000
223/05 11:48MONEY089Straight Flush1,200,000
323/05 11:44GESER94Straight Flush2,400,000
423/05 11:44T4DHAFIZD02Straight Flush240,000
523/05 11:41MUKSIN444Straight Flush120,000
LATEST JACKPOT
No.TanggalNamaPriceWin
123/05 11:53FERAARIIFull House2,000
223/05 11:53TOPENK23Full House10,000
323/05 11:53NTONG88Full House2,000
423/05 11:52SEB10Four Of A Kind500,000
523/05 11:52SRTLLATANDEH79Full House5,000
623/05 11:52RK23Full House2,000
723/05 11:52RAMRAM11Full House5,000
823/05 11:52SATRIA076Full House5,000
923/05 11:52CB77B4B19UFull House5,000
1023/05 11:52STGSLAFull House1,000
1123/05 11:52ELEHAN88Full House10,000
1223/05 11:52SAME118Full House2,000
1323/05 11:52RICH8878Full House10,000
1423/05 11:52UWATERE30Four Of A Kind50,000
1523/05 11:52TERMINAL__Full House5,000
1623/05 11:52WIK4Y99Four Of A Kind250,000
1723/05 11:52RA_MA43Full House2,000
1823/05 11:52CIUS_15Full House10,000
1923/05 11:52ASSATUHStraight Flush120,000
2023/05 11:529GANA9Full House1,000
2123/05 11:52JACK6699Full House10,000
2223/05 11:52SATRIA076Full House5,000
2323/05 11:52HERLL99Full House1,000
2423/05 11:52QLOROX99Full House10,000
2523/05 11:52SELABU01Full House2,000
2623/05 11:52TIK_TOK11Full House5,000
2723/05 11:52PORANDA01Full House5,000
2823/05 11:52CENTRING09Full House5,000
2923/05 11:52NINI887Full House2,000
3023/05 11:52YSY99Full House2,000
3123/05 11:52CARISRG9Full House5,000
3223/05 11:52BANDARBAIKFull House10,000
3323/05 11:52STRS0811Full House2,000
3423/05 11:52BE6AD174Full House2,000
3523/05 11:52SUNEOZFull House2,000
3623/05 11:52TUMERE86Full House1,000
3723/05 11:52MEFACK6Full House5,000
3823/05 11:52APA_Full House2,000
3923/05 11:52MAWARDY9Four Of A Kind50,000
4023/05 11:52A68ENDOQ824Full House5,000
4123/05 11:52INEXUBASFull House1,000
4223/05 11:52TEMPIK01Full House2,000
4323/05 11:52ZENBOXFull House10,000
4423/05 11:51KERANJANG8Full House10,000
4523/05 11:51SUN4D3Full House5,000
4623/05 11:51ZOVIET10Full House2,000
4723/05 11:51DON10Full House5,000
4823/05 11:51TOLAJI05Full House2,000
4923/05 11:51JACK6699Full House10,000
5023/05 11:51G9570X2HT1Full House2,000

Domino Multi Jackpot System

Ikutilah global jackpot yang tersedia di system kami, dengan system jackpot terbaru dan pertama di indonesia, anda dapat membeli jackpot dengan harga 100 rupiah saja dan menangkan hadiahnya hingga puluhan juta rupiah.

Jackpot bukanlah suatu keharusan untuk dibeli, namun kami memberikan suatu fitur tambahan untuk member tercinta dari www.oceqq.org.

Terdapat tiga pilihan harga jackpot yang bisa anda beli yaitu :100,500 dan 1000 rupiah.

Hadiah dari Multi jackpot system www.oceqq.org

  1. Murni Kecil x 50 harga jackpot yang anda beli.
      (contoh:anda membeli 1000 maka:1000 X 50 = 50.000)
  2. Murni Besar x 50 harga jackpot yang anda beli
      (contoh:anda membeli 1000 maka:1000 X 50 = 50.000)
  3. BALAK x 100 harga jackpot yang anda beli
      (contoh:anda membeli 1000 maka:1000 X 100 = 100.000)
  4. ENAM DEWA x 6666 harga jackpot yang anda beli
      (contoh:anda membeli 1000 maka:1000 X 6666 = 6.666.000)

Demikian adalah penjelasan dari Multi Jackpot www.oceqq.org terima kasih dan selamat bermain salam hoki dari kami

Domino Jackpot Winner

TOP ENAM DEWA
No.TanggalNamaPriceWin
123/05 11:42RAWU6666murni enam6,666,000
223/05 11:22LB888918murni enam666,600
323/05 09:22OKTO65murni enam3,333,000
423/05 06:08MULTIPLAY8murni enam6,666,000
523/05 03:35NTONGREMONmurni enam3,333,000
TOP BALAK
No.TanggalNamaPriceWin
123/05 11:51BBJ123balak50,000
223/05 11:42V_X10Nbalak100,000
323/05 11:32PAKWONG28balak100,000
423/05 11:31DADANGCEPbalak10,000
523/05 11:21MARYANTO70balak100,000
LATEST JACKPOT
No.TanggalNamaPriceWin
123/05 11:52CUTZZZmurni besar25,000
223/05 11:52MAMPIR32murni kecil5,000
323/05 11:52GOLEM999murni besar50,000
423/05 11:51BBJ123balak50,000
523/05 11:51BERHASILWElucky992,500
623/05 11:49OBC7187murni besar50,000
723/05 11:49A_KANGmurni besar50,000
823/05 11:48UBEKVIPmurni kecil25,000
923/05 11:47SU081289murni besar50,000
1023/05 11:45SAIN123murni besar25,000
1123/05 11:45AZKIYAH160murni besar50,000
1223/05 11:45WALIPITUEmurni kecil25,000
1323/05 11:43TRISTEGUH8murni kecil50,000
1423/05 11:43RIZKI2013murni besar50,000
1523/05 11:43UBEKVIPmurni besar25,000
1623/05 11:42DM82997murni kecil50,000
1723/05 11:42GEMEN11murni kecil5,000
1823/05 11:42RAWU6666murni enam6,666,000
1923/05 11:42KIMJUNGASUmurni besar25,000
2023/05 11:42V_X10Nbalak100,000
2123/05 11:41EMPEROROVmurni besar25,000
2223/05 11:41KERONTANmurni kecil5,000
2323/05 11:41MAMPIR32murni besar5,000
2423/05 11:40MARYANTO70murni kecil50,000
2523/05 11:40PENCENG90murni kecil50,000
2623/05 11:39HRTNmurni kecil25,000
2723/05 11:37DHYDHYmurni besar50,000
2823/05 11:37MUNISImurni besar50,000
2923/05 11:36WINNER2187murni besar5,000
3023/05 11:36THE_101murni kecil5,000
3123/05 11:34CIPUT69murni besar5,000
3223/05 11:34ZACXmurni besar25,000
3323/05 11:34DIANATIOmurni besar50,000
3423/05 11:34BBEEKIYU66murni kecil50,000
3523/05 11:34BOLUI009murni besar50,000
3623/05 11:34PAP86murni kecil25,000
3723/05 11:33MRGALAU3murni besar50,000
3823/05 11:32GOODPAPAmurni kecil5,000
3923/05 11:32PAKWONG28balak100,000
4023/05 11:31DADANGCEPbalak10,000
4123/05 11:30HAM626murni besar50,000
4223/05 11:29BBCA13murni kecil5,000
4323/05 11:28AHONGPEONGmurni kecil5,000
4423/05 11:28T0L36666murni kecil5,000
4523/05 11:27ZONIAJA123lucky9925,000
4623/05 11:27HESTY90murni kecil25,000
4723/05 11:25RASIQPACUmurni besar5,000
4823/05 11:25PAKILLmurni kecil25,000
4923/05 11:24CB77DODOL99murni besar25,000
5023/05 11:24GOLEM999murni kecil50,000

Ceme Multi Jackpot System

Jackpot dilihat dari gabungan kartu pemain dengan kartu bandar. Bandar harus membeli jackpot sebanyak jumlah player yang sedang duduk. Sebagai contoh bila terdapat 3 pemain duduk bermain, dan bandar memutuskan untuk membeli jackpot Rp 1.000, maka pada periode tersebut bandar akan membeli jackpot sebanyak 3xRp1.000 = Rp3.000.

Jackpot bukanlah suatu keharusan untuk dibeli, namun kami memberikan suatu fitur tambahan untuk member tercinta dari www.oceqq.org.

Terdapat tiga pilihan harga jackpot yang bisa anda beli yaitu :100,500 dan 1000 rupiah.

Hadiah dari Multi jackpot system www.oceqq.org

  1. Murni Kecil x 50 harga jackpot yang anda beli.
      (contoh:anda membeli 1000 maka:1000 X 50 = 50.000)
  2. Murni Besar x 50 harga jackpot yang anda beli
      (contoh:anda membeli 1000 maka:1000 X 50 = 50.000)
  3. BALAK x 200 harga jackpot yang anda beli
      (contoh:anda membeli 1000 maka:1000 X 200 = 200.000)
  4. ENAM DEWA x 6666 harga jackpot yang anda beli
      (contoh:anda membeli 1000 maka:1000 X 6666 = 6.666.000)

Demikian adalah penjelasan dari Multi Jackpot www.oceqq.org terima kasih dan selamat bermain salam hoki dari kami

Ceme Jackpot Winner

TOP ENAM DEWA
No.TanggalNamaPriceWin
123/05 11:35MANTEP777murni enam6,666,000
223/05 11:21CHOUNG27murni enam6,666,000
323/05 09:46YESYOS88murni enam6,666,000
423/05 09:46IDNGCONG14murni enam3,333,000
523/05 08:50HK_5888murni enam6,666,000
TOP BALAK
No.TanggalNamaPriceWin
123/05 11:50CAEM7281balak200,000
223/05 11:49BAS81balak200,000
323/05 11:49HAM626balak200,000
423/05 11:49QQENDA99balak20,000
523/05 11:48HOT48balak200,000
LATEST JACKPOT
No.TanggalNamaPriceWin
123/05 11:53SETO008murni besar5,000
223/05 11:52WARNE9murni kecil50,000
323/05 11:52WITDROW99murni kecil5,000
423/05 11:52MAND82murni besar25,000
523/05 11:52EHS86murni besar5,000
623/05 11:52NOV1992murni kecil50,000
723/05 11:52IDUTEAmurni kecil50,000
823/05 11:52XXIXXI696murni besar5,000
923/05 11:52XXIXXI696murni besar5,000
1023/05 11:52YOIBROW89murni besar25,000
1123/05 11:52HAPPY688murni kecil50,000
1223/05 11:51JAJANGGARRmurni kecil50,000
1323/05 11:51ISOHAU2709murni kecil50,000
1423/05 11:51D1AC7028murni besar5,000
1523/05 11:51D1AC7028murni besar5,000
1623/05 11:51IWEL123murni besar50,000
1723/05 11:50BOAH290murni kecil25,000
1823/05 11:50BUYUANG55murni besar50,000
1923/05 11:50KARUIK07murni kecil50,000
2023/05 11:50HELEMEXmurni besar50,000
2123/05 11:50CINATA99murni besar50,000
2223/05 11:50SAT1Amurni besar5,000
2323/05 11:50CAEM7281balak200,000
2423/05 11:50ZVSXXmurni kecil50,000
2523/05 11:50VIRLYOCKTAmurni kecil50,000
2623/05 11:49DIWANA18murni kecil50,000
2723/05 11:49ERHOOD202murni kecil5,000
2823/05 11:49BAS81balak200,000
2923/05 11:49CENTONXmurni kecil50,000
3023/05 11:49DONO9912murni kecil50,000
3123/05 11:49ONE__PIECEmurni besar50,000
3223/05 11:49ONE__PIECEmurni besar50,000
3323/05 11:49HAM626balak200,000
3423/05 11:49QQENDA99balak20,000
3523/05 11:49NOVANOSmurni kecil50,000
3623/05 11:49SUDIADA100murni kecil50,000
3723/05 11:49NOVANOSmurni kecil50,000
3823/05 11:49AADDAIDO56murni kecil5,000
3923/05 11:48HOT48balak200,000
4023/05 11:48ALRIZQI9murni besar25,000
4123/05 11:48DIWANA18murni kecil50,000
4223/05 11:48KIKIGITARmurni kecil25,000
4323/05 11:48SWARA16murni kecil50,000
4423/05 11:48IONK42murni besar25,000
4523/05 11:47CAWET144balak20,000
4623/05 11:47FAYSUCENmurni kecil5,000
4723/05 11:47CIUT82murni kecil5,000
4823/05 11:47SWARA16balak200,000
4923/05 11:47CACAH06murni kecil5,000
5023/05 11:47MITA49balak20,000